顯示廣告
隱藏 ✕
※ 本文轉寄自 ptt.cc 更新時間: 2021-07-19 13:43:13
看板 Baseball
作者 zxcc79 (去骨雞)
標題
 [炸裂] 大谷翔平

時間 Mon Jul 19 07:25:29 2021


第34轟

參加過全壘打大賽之後低潮到今天敲出全壘打

原來前一打席的內野安打是用跑速先來為這支全壘打熱身啊

水手 7:4 天使   追回兩分

--
--
※ 發信站: 批踢踢實業坊(ptt.cc), 來自: 111.82.252.97 (臺灣)
※ 文章代碼(AID): #1WzBXi5- (Baseball)
※ 文章網址: https://www.ptt.cc/bbs/Baseball/M.1626650732.A.17E.html
※ 同主題文章:
dragon327: 慢1F 07/19 07:25
JoAdell: 聽說低潮?2F 07/19 07:25
mtcoat: 射啦3F 07/19 07:25
chuck8889: 慢4F 07/19 07:25
shadow6571: 慢5F 07/19 07:25
※ 編輯: zxcc79 (111.82.252.97 臺灣), 07/19/2021 07:27:12
yueroyale: 超慢6F 07/19 07:25
jim841019g: 猛7F 07/19 07:25
jack34031: 這不就來了嗎8F 07/19 07:25
a20351: 復活9F 07/19 07:25
Axy8: 哈哈哈哈10F 07/19 07:25
Chen96770: 超慢11F 07/19 07:25
tomedc14: 有夠慢12F 07/19 07:25
chartan: 笑死 低潮過了13F 07/19 07:25
santiago148: 笑死14F 07/19 07:25
tom50512: 笑死 水啦15F 07/19 07:25
RedShin: 終於16F 07/19 07:25
hcnchccedutw: 笑17F 07/19 07:25
jon38041: 推18F 07/19 07:25
yasan1029: 笑死19F 07/19 07:25
Hans14: 終於清槍了20F 07/19 07:25
SNGoMMX: 終於!21F 07/19 07:26
fireforce: 還以為沒人搶22F 07/19 07:26
BenZobrist: 低潮23F 07/19 07:26
JIYUI: 憋好久終於啊24F 07/19 07:26
terminator3: 笑死 梗撲真深25F 07/19 07:26
ShaEric63ck: 有看到 笑死26F 07/19 07:26
edison9311: 爽27F 07/19 07:26
pennyhsieh: 終於惠來了28F 07/19 07:26
roy1109: 投這麼低也被撈到...29F 07/19 07:26
dumanis: 笑死30F 07/19 07:26
rpm0914: 跟的真好31F 07/19 07:26
Adam6613: 讚啦 終於開轟了 好猛喔內角低壞球扛出去32F 07/19 07:26
akiraje: 扯33F 07/19 07:26
mikilin23: 做好選球一切都沒問題QQ..昨天那些酸的跑哪去了34F 07/19 07:26
Muting46: 笑死 拒絕被保送開上果嶺的一擊35F 07/19 07:26
[圖]
huohuai: 太神啦,看到早上回來了37F 07/19 07:26
[圖]
gts123: 觀眾搶得有夠兇39F 07/19 07:26
mikilin23: 是不是又躲廁所了...40F 07/19 07:26
YBnai: 低潮過了41F 07/19 07:26
lanhyi: 早就說不要參加全壘打大賽...咦?42F 07/19 07:26
fman: 那麼低也可以扛得出去真猛43F 07/19 07:26
ainge: 兩好三壞,兩人出局開轟,厲害。44F 07/19 07:26
stonerr: 讚讚讚45F 07/19 07:26
PatrickStan: 有夠低的一球46F 07/19 07:26
info1994: 集K換轟47F 07/19 07:26
[圖]
dNchOmiu: 終於來啦49F 07/19 07:27
cc03233: 笑死 憋到9局才開轟50F 07/19 07:27
hankfred: 猛51F 07/19 07:27
arvin520: 推52F 07/19 07:27
KBOA: 推~53F 07/19 07:27
knight45683: 笑死 快散場才轟54F 07/19 07:27
g005522: 沒壓力 繼續拉開3隻安全距離 讚55F 07/19 07:27
enoch82828: 炸啦,想說不是有嗎56F 07/19 07:27
bluedp: 推57F 07/19 07:27
dgdgevil: 笑死58F 07/19 07:27
HoriMiona: 狂59F 07/19 07:27
wenshin: 選球還是要先做好60F 07/19 07:27
brendantang: 笑死 有夠慢61F 07/19 07:27
heisnyrd: 笑死62F 07/19 07:27
Illenium: 快63F 07/19 07:27
showtime0227: 笑死棒球天才不需要凡人太過操心的64F 07/19 07:27
BenZobrist: 剛起床就看到炸裂65F 07/19 07:27
lykewake: 笑死,等超久才轟66F 07/19 07:27
nevikw39: HR!!!67F 07/19 07:28
jiaxie: 笑死4場沒HR,今天微解封68F 07/19 07:28
AnthonyEdwar: 崩潰噓69F 07/19 07:28
bear09931831: 醒啦!等好久了~70F 07/19 07:28
[圖]
Los Angeles Angels
@Angels
#34!
apo12383: 有選球有差72F 07/19 07:28
rich830502: 第幾發了73F 07/19 07:28
aa00zz: 笑死,終於集滿氣了74F 07/19 07:28
max2604: 水喔75F 07/19 07:29
carfu: 終於76F 07/19 07:29
rosywhite: 終於笑死!77F 07/19 07:29
claudia1214: 終於! 這不是來了嗎!78F 07/19 07:29
JFNfrog: 強79F 07/19 07:29
laba5566: 笑死 無關勝負打一發80F 07/19 07:29
agong: 笑 洗HR81F 07/19 07:29
GaoYY: 笑死 這麼低的球也在揮82F 07/19 07:29
[圖]
MLB
@MLB
Shohei Ohtani has 34 HR this year.

And he's pitching tomorrow.
LIGAGA: 搶在明天大谷先發投球前把翔平找回來了84F 07/19 07:30
Yuko300: 今天終於回鍋做每日任務了85F 07/19 07:30
beaverkp: 哇這麼低的球欸86F 07/19 07:30
rickcoo: 笑死 集K換HR87F 07/19 07:30
pentup: 笑死88F 07/19 07:30
aa52189: 笑死怎麼不憋到下一場89F 07/19 07:30
narutotim: 扯蛋欸 誇張啊90F 07/19 07:30
wangtime: YAAAAAAAAAAAAaa91F 07/19 07:30
rxiang: https://i.imgur.com/xJCC6TB.jpg  107.3 MPH 25°  419 ft92F 07/19 07:30
[圖]
ainge: 球超低的,還是抗出去......93F 07/19 07:30
lumi0811: 爽啦94F 07/19 07:31
robertchun: 沒有阿翔的全壘打彷彿不算早晨95F 07/19 07:31
yoyo99931: 猛96F 07/19 07:31
WeAntiTVBS: 笑死97F 07/19 07:31
TWKaner: 笑死 誇張98F 07/19 07:31
ocean0913: 終於~笑死99F 07/19 07:32
teremy: 很刁鑽的內角變化球(壞球)還是被他扛出去100F 07/19 07:32
coolhidekimo: 算破除全壘打大賽魔咒了吧101F 07/19 07:32
ken720331: 強102F 07/19 07:32
sleepmilk: 美好的早晨還是從笑死開始。103F 07/19 07:32
godoflight: 低潮104F 07/19 07:32
RoastCorn: 讚105F 07/19 07:32
leo79415: 今日大谷怎還沒人發106F 07/19 07:33
linecross: 這球也撈的出去有夠鬼107F 07/19 07:33
ainge: 這球離本壘板高度應該也是前幾低的喔108F 07/19 07:33
rosywhite: 起床又笑死109F 07/19 07:33
jeff1013: 還在全壘打大賽魔咒 真的笑死XD110F 07/19 07:33
jevoling: 集K換全壘打的概念111F 07/19 07:33
julian42: 笑死,圾垃時間刷數據112F 07/19 07:33
ken720331: 這樣算調整很快了113F 07/19 07:33
tweence: XD114F 07/19 07:34
bass17: 笑死  終於想起來壞球也能扛出去了115F 07/19 07:34
silentsky555: 盲砲116F 07/19 07:34
tavern: 終於117F 07/19 07:34
max0616: 看小葛一直追 終於認真了118F 07/19 07:34
kimberiea: 超低的球被轟,這力量…119F 07/19 07:35
NRS: 終於上果嶺了,這球超低120F 07/19 07:35
cplusplus426: 60轟go121F 07/19 07:35
b99202071: 終於122F 07/19 07:35
ghost069: 大家繼續酸低潮沒關係 笑死123F 07/19 07:35
XoPXoP: 炸裂124F 07/19 07:36
lmf770410: 笑死 都在最後才開始進攻125F 07/19 07:36
glmkk: 好低也被撈出去 強126F 07/19 07:36
yaes111: 笑死 復活了127F 07/19 07:37
pppbruce: 終於炸了128F 07/19 07:37
hjt11201213: 谷黑又被打臉129F 07/19 07:37
joewang85: 笑死 低潮啦 咦130F 07/19 07:37
IrvingKyrie: 才一場沒轟就叫低潮..131F 07/19 07:37
a1230215: 強132F 07/19 07:38
showtime0227: 笑死是不是前個打席內野安打太累,直接扛出去就可以133F 07/19 07:38
showtime0227: 慢慢跑了啊
danwhei: 笑死  花幾場才打出來啊135F 07/19 07:38
silentsky555: 前幾場選球眼沒開一直打壞球136F 07/19 07:40
ScounDrel: 一場沒轟是低潮沒錯啊137F 07/19 07:40
ZhouGongJin: 猛138F 07/19 07:40
qazzaq42: 哦哦哦哦哦哦139F 07/19 07:41
ttrreeee: 笑死140F 07/19 07:41
starcry: 真的低啊 這球有夠低141F 07/19 07:41
poor147: 谷酸:怎麼會有人覺得參加完全壘打比賽沒有影響142F 07/19 07:41
yy222499: 笑死 一場的低潮143F 07/19 07:41
kakashi71: 笑死 又集k換全壘打了嗎144F 07/19 07:41
secret1414: 超可愛145F 07/19 07:42
[圖]
LEEWY: 終於~147F 07/19 07:42
Johnnie5334: 周潤發回來了148F 07/19 07:42
SNGoMMX: 超低,難怪投手不爽149F 07/19 07:43
proprome: 終於150F 07/19 07:44
js0431: 哇151F 07/19 07:45
zzzz0516: 低潮只有兩三場,可怕152F 07/19 07:46
finzaghi: 笑死153F 07/19 07:47
comboday: 投那麼低了XD154F 07/19 07:47
hsgreent: 我還以為在看棒球 原來是高爾夫啊155F 07/19 07:48
AtDe: 笑死 終於打出來了156F 07/19 07:48
magicwei: 推157F 07/19 07:49
siyow: 讚啦158F 07/19 07:49
its0130: 笑死,太扯159F 07/19 07:50
phyBomber: 干哪裡來的低潮160F 07/19 07:50
sleeeve: 大壞球被轟,超噁161F 07/19 07:51
xxgogg: 根本高潮162F 07/19 07:52
jackie5678: 壞球也在撈 笑死163F 07/19 07:52
yianhua: 這麼低的變化球撈這麼遠,哇164F 07/19 07:54
asdf70044: 集K換無雙165F 07/19 07:54
kennyhen: 笑死,只會揮大棒166F 07/19 07:56
zaza1128: 笑死,休息夠了嗎167F 07/19 07:58
asdfg5435: 笑死 不是低潮168F 07/19 07:59
kuo3027: 笑死 休息夠了是嗎169F 07/19 07:59
hu156: 笑死 這麼低也在打170F 07/19 08:01
chiangww: 笑死 全壘打大賽症候群171F 07/19 08:02
a26893997: 終於172F 07/19 08:02
tsaodin0220: 笑死173F 07/19 08:02
megalodon35: 笑死 低潮一天174F 07/19 08:04
kevinhong314: 笑死 那麼低還轟175F 07/19 08:04
wang460313: 笑死 今天才開轟XD176F 07/19 08:06
CCWchris: 笑死 這麼低也炸177F 07/19 08:07
Ryo5566: 笑死 壞球也轟都給你玩178F 07/19 08:08
odddriver: 可愛179F 07/19 08:09
mackyou: 一號木桿180F 07/19 08:10
oorflumpool: 笑死  昨天不敢打學長  今天就轟別人181F 07/19 08:11
ljuber: 希望可以擺脫全壘打大賽的症候群182F 07/19 08:11
chh1470: 笑死183F 07/19 08:12
Eloye: 笑死,裝低潮嚷投手不敬遠184F 07/19 08:13
vltw5v: 笑死 K集夠了啊185F 07/19 08:15
katanakiller: 笑死186F 07/19 08:15
tezukaizumi: 這麼低也在轟187F 07/19 08:17
harry155007: 一大早就笑死188F 07/19 08:17
RLH: Chosen one189F 07/19 08:18
RicFlair: 笑死 還沒涼透喔190F 07/19 08:18
moonchaser: 總算結束低潮了,等很久了191F 07/19 08:19
aa091811004: 恭喜低潮結束192F 07/19 08:20
aa091811004: 雖然這麼說,但是好像也沒低潮多久
mikilin23: 2場10-1還好啦...之前5場19-2更慘194F 07/19 08:22
e44444: 推195F 07/19 08:24
ason: 猛.......196F 07/19 08:25
Sammingy: 笑死197F 07/19 08:27
pttshawn: 笑死,打高爾夫喔198F 07/19 08:29
HelloFumi: 笑死 撈成這樣 是多愛揮199F 07/19 08:32
hhh770509: 這球超低耶 誇張200F 07/19 08:33
leonho40412: 笑死201F 07/19 08:33
sero423: 其實他回血回蠻快的啊,才兩場就復活了202F 07/19 08:34
sero423: 厲害!
cloudin: 說是低潮但也才幾場比賽204F 07/19 08:34
DukeMonkey: 笑死205F 07/19 08:34
jenna1006: 笑死206F 07/19 08:35
kaze1225: 水啦207F 07/19 08:35
mosap: 終於 感動啊208F 07/19 08:36
qwamnbfgop21: 笑死 現在才尻209F 07/19 08:36
danielsu0604: 真的笑死210F 07/19 08:38
tsgd: 笑死 只會季賽全壘打211F 07/19 08:38
Ikaruwill: 笑死 想到全壘打大賽上的親友團只有學長一人才放過他212F 07/19 08:41
edhuang: 笑死 又開轟213F 07/19 08:42
featherable: 笑死 球太紅中打不出去214F 07/19 08:42
icou: 說低潮的很怪吧 真以為保底一天一轟喔215F 07/19 08:42
[圖]
dyinging: 低潮兩天217F 07/19 08:44
ruka660101: 恭喜218F 07/19 08:45
Yanrei: 他是回想起一壘的恐怖219F 07/19 08:48
fatedate: 低潮終於過了是吧220F 07/19 08:50
fatedate: 笑死 是全壘打要被小葛追上在怕吧
ezlifee1140: 笑死 就說不要參加全壘打大賽了吧222F 07/19 08:53
ezlifee1140: 你看 沒有天天打全壘打了
yas73528: 笑死 低潮224F 07/19 08:54
ttlun: 笑死 打高爾夫喔225F 07/19 08:56
zzzuuuppp: 好險沒投中間還真的不會打QQ226F 07/19 08:57
zsincerity: 大家越來越嚴格了227F 07/19 09:00
breadsuper6: 強228F 07/19 09:03
zweihander99: 笑死 低潮到只會全壘打229F 07/19 09:06
ningzea: 笑死230F 07/19 09:21
nick83823: 終於231F 07/19 09:22
sunnyyoung: 原來是熱身熱不夠232F 07/19 09:22
ben100rk: 笑死233F 07/19 09:23
RG5678: 777777234F 07/19 09:25
Tawara: 還真的集k換全壘打235F 07/19 09:33
orzzroGC: 笑死 有種追平比數呀QQQQ236F 07/19 09:33
ak47g78: 誰說他低潮的237F 07/19 09:43
usoko: 笑死 是打算集多少K238F 07/19 09:43
Lovhamburger: 棒棒239F 07/19 09:44
DriveKing: 超低進壘直接撈出去XD240F 07/19 09:47
girafa: 哈哈哈241F 07/19 09:49
after1: 笑死242F 07/19 10:01
zxc15793: 笑死  五天才一轟243F 07/19 10:06
hit0123: 低標一天一轟 笑死244F 07/19 10:06
dudu5566: 笑死 3天才尻一發245F 07/19 10:19
openlion: 你終究要打全壘打的為何不一開始就打246F 07/19 10:21
CloserXD: 笑死247F 07/19 10:30
asxc530530: 笑死248F 07/19 10:30
black510113: 低潮了一場249F 07/19 10:43
hinajian: 笑死 連低潮都沒別人久250F 07/19 10:45
followmeyo: 這麼低也撈出去……251F 07/19 10:46
peter81326: 笑死252F 07/19 10:50
bearKQG: 太神啦 第二場救開轟253F 07/19 10:53
lyt5566: 笑死 低潮一場254F 07/19 11:03
halfmonster: 原來大谷只會打難打的球 怪不得餵球都打不好255F 07/19 11:18
Yjizz: 笑死 鱉好久256F 07/19 11:33
planethell: 才在看太累的新聞257F 07/19 11:35
Arodz: 推258F 07/19 11:50
s06430105: 笑死259F 07/19 12:02
kogreece: 猛猛260F 07/19 12:09
CowBaoGan: 昨天K集滿了今天就炸261F 07/19 12:14
akei23: 到了美國的第三年,才開始認真打球的高中生262F 07/19 12:31
a2156700: 累了263F 07/19 12:38
Chiang51: 高三學長該表現了264F 07/19 13:00

--
※ 看板: Baseball 文章推薦值: 0 目前人氣: 0 累積人氣: 26 
分享網址:
r)回覆 e)編輯 d)刪除 M)不收藏 ^x)轉錄 同主題: =)首篇 [)上篇 ])下篇